Regional Weather Roundup
Issued by NWS Cleveland, OH

Home | Current Version | Previous Version | Graphics & Text | Print | Product List | Glossary On
Versions: 1 2 3 4 5 6 7 8 9 10 11 12 13 14 15 16 17 18 19 20 21 22 23 24 25 26 27 28 29 30 31 32 33 34 35 36 37 38 39 40 41 42 43 44 45 46 47 48 49 50
000
ASUS41 KCLE 300802
RWRCLE
OHIO REGIONAL WEATHER ROUNDUP
NATIONAL WEATHER SERVICE CLEVELAND, OH
400 AM EDT TUE SEP 30 2014

NOTE: "FAIR" INDICATES FEW OR NO CLOUDS BELOW 12,000 FEET WITH NO
SIGNIFICANT WEATHER AND/OR OBSTRUCTIONS TO VISIBILITY.

OHZ001>008-015>018-024>027-034-035-043-044-300900-
   NORTHWEST OHIO

CITY           SKY/WX    TMP DP  RH WIND       PRES   REMARKS
DEFIANCE       CLOUDY    61  57  87 CALM      29.90F FOG
FINDLAY        PTCLDY    57  52  83 W6        29.88S
TOLEDO EXPRESS HVY RAIN  61  59  93 CALM      29.88F FOG
TOLEDO EXEC    CLOUDY    63  57  81 NW9       29.89S
LIMA           PTCLDY    58  52  80 W3        29.90S
$$

OHZ009>014-019>023-028>033-038-089-300900-
   NORTHEAST OHIO

CITY           SKY/WX    TMP DP  RH WIND       PRES   REMARKS
CLE-HOPKINS    PTCLDY    55  52  89 W3        29.88F
CLE-LAKEFRONT  CLEAR     62  54  74 SE9       29.85F
CUY CO. ARPT   NOT AVBL
LORAIN-ELYRIA  CLEAR     58  52  80 SW6       29.88S
ASHTABULA      CLEAR     53  51  93 CALM      29.88F FOG
AKRON-CANTON   CLEAR     59  52  77 CALM      29.89F
WOOSTER        CLEAR     48  45  89 CALM      29.90S
MANSFIELD      CLEAR     54  52  93 S5        29.89F
YOUNGSTOWN     CLEAR     54  52  93 S3        29.88F
$$

OHZ042-051>053-060>062-070>072-077>081-300900-
  SOUTHWEST OHIO

CITY           SKY/WX    TMP DP  RH WIND       PRES   REMARKS
CINC-COVINGTON CLEAR     54  50  86 CALM      29.93F
CINC-LUNKEN    CLEAR     52  51  97 CALM      29.94S FOG
HAMILTON       CLEAR     50  49  96 CALM      29.93F
DAYTON         PTCLDY    58  50  75 SW5       29.92F
WRIGHT-PAT AFB CLEAR     53  50  89 CALM      29.91F
DAYTON GENERAL CLEAR     57  51  80 S3        29.92F
WILMINGTON     CLEAR     53  48  83 CALM      29.93S
$$

OHZ036-037-039>041-045>050-054>059-063>069-073>076-082>088-300900-
  CENTRAL AND SOUTHEAST OHIO

CITY           SKY/WX    TMP DP  RH WIND       PRES   REMARKS
COLUMBUS       CLEAR     54  51  90 CALM      29.90F
OSU AIRPORT    CLEAR     55  50  83 CALM      29.90F
BOLTON FIELD   CLEAR     50  49  95 CALM      29.91S
RICKENBACK AFB CLEAR     52  48  89 CALM      29.90F
NEWARK         CLEAR     47  45  93 CALM      29.90F FOG
MARION         CLEAR     53  48  83 S6        29.90F
LANCASTER      CLEAR     47  44  90 CALM      29.91F
ZANESVILLE     PTCLDY    50  48  93 CALM      29.90F FOG
NEW PHILLY     CLOUDY    51  51 100 CALM      29.89F FOG
$$


USA.gov is the U.S. government's official web portal to all federal, state and local government web resources and services.